SIA934 WSSS-WADD

Flight info

Callsign SIA934
Flight time 2h 18m
Altitude 41000
Route IDBUD1B IDBUD T24 SURGA M635 UDONO
Aircraft A343/H-SDE2E3FGHIJ4J5M1RWXY/LB1D1

Departure

Time 2026-05-07 22:47
Airport Singapore Changi Airport (WSSS)

Arrival

Time 2026-05-08 01:05
Airport Denpasar I Gusti Ngurah Rai International Airport (WADD)
Time Latitude Longitude Altitude Speed Heading
2026-05-07 22:06 1.35099 103.98321 35 ft 0 kts 112°
2026-05-07 22:34 1.35108 103.98302 33 ft 4 kts 112°
2026-05-07 22:34 1.35118 103.98277 33 ft 4 kts 112°
2026-05-07 22:34 1.35127 103.98257 33 ft 4 kts 107°
2026-05-07 22:35 1.35131 103.98231 33 ft 4 kts 83°
2026-05-07 22:35 1.35124 103.98206 32 ft 4 kts 64°
2026-05-07 22:35 1.35114 103.98185 33 ft 4 kts 63°
2026-05-07 22:35 1.35102 103.98161 33 ft 4 kts 63°
2026-05-07 22:36 1.35092 103.98142 32 ft 4 kts 61°
2026-05-07 22:36 1.35077 103.98120 32 ft 4 kts 41°
2026-05-07 22:36 1.35054 103.98105 31 ft 4 kts 24°
2026-05-07 22:36 1.35035 103.98098 32 ft 0 kts 22°
2026-05-07 22:37 1.35036 103.98098 32 ft 0 kts 22°
2026-05-07 22:38 1.35038 103.98099 35 ft 1 kts 22°
2026-05-07 22:39 1.35058 103.98107 35 ft 6 kts 23°
2026-05-07 22:39 1.35121 103.98133 35 ft 15 kts 21°
2026-05-07 22:39 1.35226 103.98177 35 ft 17 kts 21°
2026-05-07 22:39 1.35333 103.98157 35 ft 16 kts 336°
2026-05-07 22:40 1.35436 103.98167 35 ft 16 kts 22°
2026-05-07 22:40 1.35547 103.98213 35 ft 17 kts 22°
2026-05-07 22:40 1.35662 103.98261 35 ft 19 kts 22°
2026-05-07 22:40 1.35782 103.98313 35 ft 19 kts 25°
2026-05-07 22:41 1.35908 103.98369 35 ft 20 kts 22°
2026-05-07 22:41 1.36042 103.98423 35 ft 21 kts 22°
2026-05-07 22:41 1.36185 103.98483 35 ft 23 kts 22°
2026-05-07 22:41 1.36335 103.98546 34 ft 24 kts 22°
2026-05-07 22:42 1.36489 103.98611 34 ft 24 kts 24°
2026-05-07 22:42 1.36648 103.98677 34 ft 25 kts 23°
2026-05-07 22:42 1.36809 103.98746 34 ft 26 kts 23°
2026-05-07 22:42 1.36968 103.98814 34 ft 16 kts 26°
2026-05-07 22:43 1.37001 103.98878 34 ft 8 kts 100°
2026-05-07 22:43 1.36972 103.98950 34 ft 13 kts 116°
2026-05-07 22:43 1.36929 103.99046 34 ft 18 kts 114°
2026-05-07 22:43 1.36872 103.99177 34 ft 22 kts 113°
2026-05-07 22:44 1.36811 103.99323 34 ft 24 kts 113°
2026-05-07 22:44 1.36743 103.99478 34 ft 25 kts 113°
2026-05-07 22:44 1.36674 103.99638 34 ft 25 kts 113°
2026-05-07 22:44 1.36603 103.99800 34 ft 24 kts 118°
2026-05-07 22:45 1.36496 103.99832 34 ft 14 kts 201°
2026-05-07 22:45 1.36405 103.99835 34 ft 14 kts 153°
2026-05-07 22:45 1.36301 103.99887 34 ft 19 kts 153°
2026-05-07 22:45 1.36174 103.99893 34 ft 18 kts 204°
2026-05-07 22:46 1.36046 103.99833 34 ft 25 kts 205°
2026-05-07 22:46 1.35721 103.99696 34 ft 81 kts 203°
2026-05-07 22:46 1.35020 103.99400 35 ft 135 kts 203°
2026-05-07 22:46 1.34017 103.99000 202 ft 165 kts 201°
2026-05-07 22:47 1.32945 103.98581 805 ft 165 kts 204°
2026-05-07 22:47 1.31887 103.98086 1367 ft 176 kts 206°
2026-05-07 22:47 1.30685 103.97511 1657 ft 209 kts 202°
2026-05-07 22:47 1.29206 103.96960 1979 ft 243 kts 200°
2026-05-07 22:48 1.27546 103.96286 2478 ft 269 kts 204°
2026-05-07 22:48 1.25835 103.95553 3589 ft 262 kts 197°
2026-05-07 22:48 1.24057 103.95435 4750 ft 262 kts 169°
2026-05-07 22:48 1.22433 103.96299 5580 ft 272 kts 136°
2026-05-07 22:49 1.21377 103.97880 6479 ft 278 kts 115°
2026-05-07 22:49 1.20640 103.99685 7370 ft 282 kts 112°
2026-05-07 22:49 1.19915 104.01521 8292 ft 285 kts 112°
2026-05-07 22:49 1.19150 104.03360 9209 ft 288 kts 115°
2026-05-07 22:50 1.18080 104.05055 10086 ft 291 kts 131°
2026-05-07 22:50 1.16515 104.06400 10671 ft 306 kts 146°
2026-05-07 22:50 1.14639 104.07522 11067 ft 324 kts 150°
2026-05-07 22:50 1.12628 104.08645 11620 ft 335 kts 150°
2026-05-07 22:51 1.10561 104.09790 12249 ft 343 kts 150°
2026-05-07 22:51 1.08456 104.10956 12951 ft 349 kts 150°
2026-05-07 22:51 1.06322 104.12137 13678 ft 353 kts 149°
2026-05-07 22:51 1.04159 104.13334 14324 ft 357 kts 149°
2026-05-07 22:52 1.01971 104.14545 14986 ft 361 kts 149°
2026-05-07 22:52 0.99761 104.15769 15652 ft 364 kts 149°
2026-05-07 22:52 0.97537 104.17000 16326 ft 368 kts 149°
2026-05-07 22:52 0.95286 104.18246 17010 ft 371 kts 149°
2026-05-07 22:53 0.93020 104.19501 17678 ft 375 kts 149°
2026-05-07 22:53 0.90721 104.20773 18310 ft 379 kts 149°
2026-05-07 22:53 0.88405 104.22055 18889 ft 383 kts 149°
2026-05-07 22:53 0.86065 104.23350 19456 ft 386 kts 149°
2026-05-07 22:54 0.83708 104.24655 20028 ft 389 kts 149°
2026-05-07 22:54 0.81329 104.25972 20582 ft 393 kts 149°
2026-05-07 22:54 0.78932 104.27298 21142 ft 396 kts 149°
2026-05-07 22:54 0.76510 104.28639 21689 ft 399 kts 149°
2026-05-07 22:55 0.74859 104.29553 22053 ft 402 kts 149°
2026-05-07 22:55 0.73884 104.30092 22266 ft 403 kts 149°
2026-05-07 22:55 0.71421 104.31456 22757 ft 407 kts 149°
2026-05-07 22:56 0.68930 104.32834 23273 ft 411 kts 149°
2026-05-07 22:56 0.66422 104.34223 23734 ft 414 kts 149°
2026-05-07 22:56 0.63886 104.35626 24138 ft 418 kts 149°
2026-05-07 22:56 0.61336 104.37037 24559 ft 421 kts 149°
2026-05-07 22:57 0.58765 104.38460 24979 ft 424 kts 149°
2026-05-07 22:57 0.56171 104.39896 25386 ft 427 kts 149°
2026-05-07 22:57 0.53563 104.41339 25816 ft 431 kts 149°
2026-05-07 22:57 0.50927 104.42798 26227 ft 434 kts 149°
2026-05-07 22:58 0.48280 104.44263 26630 ft 437 kts 149°
2026-05-07 22:58 0.45615 104.45738 27036 ft 440 kts 149°
2026-05-07 22:58 0.42925 104.47226 27421 ft 443 kts 149°
2026-05-07 22:58 0.40223 104.48722 27815 ft 446 kts 149°
2026-05-07 22:59 0.37504 104.50226 28191 ft 449 kts 149°
2026-05-07 22:59 0.34760 104.51745 28562 ft 452 kts 149°
2026-05-07 22:59 0.32009 104.53267 28925 ft 455 kts 149°
2026-05-07 22:59 0.29226 104.54807 29283 ft 458 kts 149°
2026-05-07 23:00 0.26438 104.56350 29628 ft 460 kts 149°
2026-05-07 23:00 0.23622 104.57908 29961 ft 463 kts 149°
2026-05-07 23:00 0.20797 104.59472 30240 ft 466 kts 149°
2026-05-07 23:00 0.17948 104.61048 30544 ft 468 kts 149°
2026-05-07 23:01 0.15095 104.62627 30849 ft 470 kts 149°
2026-05-07 23:01 0.12231 104.64212 31134 ft 472 kts 149°
2026-05-07 23:01 0.09353 104.65805 31426 ft 474 kts 149°
2026-05-07 23:01 0.06469 104.67400 31701 ft 476 kts 149°
2026-05-07 23:02 0.03615 104.68979 32190 ft 471 kts 150°
2026-05-07 23:02 0.00778 104.70549 32924 ft 462 kts 150°
2026-05-07 23:02 -0.02014 104.72093 33551 ft 455 kts 149°
2026-05-07 23:02 -0.04762 104.73613 34150 ft 448 kts 149°
2026-05-07 23:03 -0.07463 104.75108 34736 ft 439 kts 149°
2026-05-07 23:03 -0.10110 104.76572 35350 ft 430 kts 149°
2026-05-07 23:03 -0.12699 104.78005 35894 ft 422 kts 150°
2026-05-07 23:03 -0.15255 104.79421 36249 ft 420 kts 150°
2026-05-07 23:04 -0.17819 104.80841 36387 ft 423 kts 150°
2026-05-07 23:04 -0.22961 104.83799 36572 ft 430 kts 144°
2026-05-07 23:04 -0.25295 104.85688 36676 ft 433 kts 134°
2026-05-07 23:05 -0.27259 104.87963 36768 ft 435 kts 123°
2026-05-07 23:05 -0.28755 104.90595 36859 ft 437 kts 112°
2026-05-07 23:05 -0.29492 104.92473 36934 ft 439 kts 107°
2026-05-07 23:05 -0.30328 104.95414 37041 ft 441 kts 102°
2026-05-07 23:06 -0.30963 104.98420 37130 ft 445 kts 100°
2026-05-07 23:06 -0.32055 105.04553 37343 ft 451 kts 99°
2026-05-07 23:07 -0.33196 105.10766 37563 ft 457 kts 100°
2026-05-07 23:07 -0.33801 105.13881 37813 ft 457 kts 100°
2026-05-07 23:07 -0.34421 105.17000 37988 ft 458 kts 101°
2026-05-07 23:07 -0.35049 105.20125 38202 ft 458 kts 101°
2026-05-07 23:08 -0.35678 105.23240 38478 ft 457 kts 100°
2026-05-07 23:08 -0.36307 105.26353 38630 ft 459 kts 101°
2026-05-07 23:08 -0.36938 105.29483 38811 ft 459 kts 100°
2026-05-07 23:08 -0.37568 105.32607 38975 ft 459 kts 100°
2026-05-07 23:09 -0.38197 105.35736 39142 ft 459 kts 100°
2026-05-07 23:09 -0.38826 105.38865 39312 ft 459 kts 99°
2026-05-07 23:09 -0.39453 105.41987 39535 ft 458 kts 100°
2026-05-07 23:09 -0.40072 105.45068 39690 ft 458 kts 100°
2026-05-07 23:10 -0.40706 105.48225 39858 ft 458 kts 100°
2026-05-07 23:10 -0.41325 105.51305 40043 ft 457 kts 100°
2026-05-07 23:10 -0.41951 105.54422 40199 ft 457 kts 100°
2026-05-07 23:10 -0.42578 105.57541 40363 ft 457 kts 99°
2026-05-07 23:11 -0.43202 105.60647 40536 ft 457 kts 100°
2026-05-07 23:11 -0.43828 105.63764 40689 ft 457 kts 100°
2026-05-07 23:11 -0.44455 105.66883 40779 ft 459 kts 100°
2026-05-07 23:12 -0.45717 105.73169 40849 ft 464 kts 100°
2026-05-07 23:12 -0.46988 105.79501 40861 ft 464 kts 100°
2026-05-07 23:13 -0.48257 105.85811 40846 ft 462 kts 100°
2026-05-07 23:13 -0.49514 105.92073 40848 ft 462 kts 100°
2026-05-07 23:14 -0.50778 105.98366 40857 ft 462 kts 100°
2026-05-07 23:14 -0.52044 106.04669 40848 ft 463 kts 100°
2026-05-07 23:15 -0.53309 106.10972 40858 ft 463 kts 100°
2026-05-07 23:15 -0.54577 106.17284 40859 ft 463 kts 100°
2026-05-07 23:16 -0.55844 106.23594 40861 ft 463 kts 100°
2026-05-07 23:16 -0.57111 106.29903 40861 ft 463 kts 100°
2026-05-07 23:17 -0.58376 106.36202 40847 ft 463 kts 100°
2026-05-07 23:17 -0.59641 106.42507 40852 ft 462 kts 100°
2026-05-07 23:18 -0.61019 106.48771 40860 ft 462 kts 107°
2026-05-07 23:18 -0.63832 106.54514 40845 ft 463 kts 126°
2026-05-07 23:19 -0.67936 106.59488 40862 ft 464 kts 130°
2026-05-07 23:19 -0.72247 106.64300 40840 ft 465 kts 131°
2026-05-07 23:20 -0.76572 106.69103 40866 ft 466 kts 130°
2026-05-07 23:20 -0.80888 106.73942 40864 ft 465 kts 130°
2026-05-07 23:21 -0.85156 106.78750 40843 ft 465 kts 130°
2026-05-07 23:21 -0.89442 106.83585 40862 ft 464 kts 131°
2026-05-07 23:22 -0.93719 106.88408 40844 ft 464 kts 130°
2026-05-07 23:22 -0.97998 106.93234 40861 ft 464 kts 130°
2026-05-07 23:23 -1.02286 106.98068 40859 ft 464 kts 130°
2026-05-07 23:23 -1.06575 107.02904 40856 ft 464 kts 130°
2026-05-07 23:24 -1.10854 107.07727 40836 ft 463 kts 130°
2026-05-07 23:24 -1.15084 107.12496 40855 ft 460 kts 130°
2026-05-07 23:25 -1.19323 107.17277 40859 ft 460 kts 130°
2026-05-07 23:25 -1.23565 107.22061 40839 ft 460 kts 130°
2026-05-07 23:26 -1.27800 107.26838 40854 ft 460 kts 130°
2026-05-07 23:26 -1.32043 107.31624 40855 ft 460 kts 130°
2026-05-07 23:27 -1.38401 107.38812 40852 ft 460 kts 130°
2026-05-07 23:27 -1.42574 107.43644 40840 ft 458 kts 129°
2026-05-07 23:28 -1.46714 107.48465 40839 ft 457 kts 129°
2026-05-07 23:28 -1.50857 107.53278 40841 ft 456 kts 129°
2026-05-07 23:29 -1.54996 107.58076 40857 ft 456 kts 129°
2026-05-07 23:29 -1.59141 107.62879 40839 ft 456 kts 129°
2026-05-07 23:30 -1.63279 107.67673 40839 ft 455 kts 129°
2026-05-07 23:30 -1.67421 107.72474 40855 ft 456 kts 129°
2026-05-07 23:31 -1.71562 107.77274 40853 ft 457 kts 129°
2026-05-07 23:31 -1.75713 107.82086 40838 ft 457 kts 129°
2026-05-07 23:32 -1.79842 107.86872 40856 ft 457 kts 129°
2026-05-07 23:32 -1.83995 107.91686 40841 ft 458 kts 129°
2026-05-07 23:33 -1.88181 107.96540 40856 ft 458 kts 129°
2026-05-07 23:33 -1.92320 108.01338 40856 ft 459 kts 129°
2026-05-07 23:34 -1.96484 108.06168 40841 ft 459 kts 129°
2026-05-07 23:34 -2.00653 108.11002 40856 ft 458 kts 129°
2026-05-07 23:35 -2.04819 108.15834 40852 ft 458 kts 129°
2026-05-07 23:35 -2.08977 108.20660 40856 ft 459 kts 129°
2026-05-07 23:36 -2.13140 108.25481 40859 ft 459 kts 129°
2026-05-07 23:36 -2.17313 108.30315 40840 ft 459 kts 129°
2026-05-07 23:37 -2.21487 108.35152 40842 ft 459 kts 129°
2026-05-07 23:37 -2.25657 108.39987 40861 ft 460 kts 129°
2026-05-07 23:38 -2.29833 108.44829 40852 ft 460 kts 129°
2026-05-07 23:38 -2.34011 108.49674 40852 ft 460 kts 129°
2026-05-07 23:39 -2.38197 108.54528 40850 ft 461 kts 129°
2026-05-07 23:39 -2.42380 108.59379 40847 ft 461 kts 129°
2026-05-07 23:40 -2.46563 108.64231 40850 ft 461 kts 128°
2026-05-07 23:40 -2.50746 108.69086 40852 ft 461 kts 129°
2026-05-07 23:41 -2.54940 108.73933 40856 ft 461 kts 129°
2026-05-07 23:41 -2.59160 108.78801 40839 ft 463 kts 129°
2026-05-07 23:42 -2.63387 108.83684 40856 ft 466 kts 129°
2026-05-07 23:42 -2.67612 108.88568 40837 ft 466 kts 129°
2026-05-07 23:43 -2.71826 108.93441 40837 ft 466 kts 129°
2026-05-07 23:43 -2.76063 108.98343 40857 ft 465 kts 129°
2026-05-07 23:44 -2.80296 109.03239 40853 ft 466 kts 129°
2026-05-07 23:44 -2.84535 109.08142 40855 ft 466 kts 129°
2026-05-07 23:45 -2.88774 109.13047 40854 ft 466 kts 129°
2026-05-07 23:45 -2.93008 109.17962 40857 ft 466 kts 129°
2026-05-07 23:46 -2.97237 109.22875 40838 ft 466 kts 129°
2026-05-07 23:46 -3.01470 109.27792 40839 ft 466 kts 129°
2026-05-07 23:47 -3.05706 109.32714 40858 ft 467 kts 129°
2026-05-07 23:47 -3.09943 109.37639 40857 ft 467 kts 129°
2026-05-07 23:48 -3.14177 109.42559 40840 ft 467 kts 129°
2026-05-07 23:48 -3.18407 109.47476 40853 ft 466 kts 129°
2026-05-07 23:49 -3.22632 109.52388 40855 ft 464 kts 128°
2026-05-07 23:49 -3.26815 109.57251 40853 ft 464 kts 128°
2026-05-07 23:50 -3.31021 109.62144 40855 ft 464 kts 129°
2026-05-07 23:50 -3.35224 109.67032 40855 ft 464 kts 128°
2026-05-07 23:51 -3.39435 109.71932 40855 ft 463 kts 129°
2026-05-07 23:51 -3.42955 109.76026 40850 ft 463 kts 128°
2026-05-07 23:52 -3.47160 109.80919 40851 ft 463 kts 128°
2026-05-07 23:52 -3.51340 109.85783 40854 ft 464 kts 128°
2026-05-07 23:53 -3.55548 109.90681 40855 ft 464 kts 128°
2026-05-07 23:53 -3.59755 109.95578 40857 ft 464 kts 129°
2026-05-07 23:54 -3.63956 110.00470 40852 ft 463 kts 128°
2026-05-07 23:54 -3.68162 110.05368 40853 ft 464 kts 129°
2026-05-07 23:55 -3.72366 110.10264 40856 ft 464 kts 128°
2026-05-07 23:55 -3.76586 110.15180 40854 ft 464 kts 129°
2026-05-07 23:56 -3.80785 110.20072 40852 ft 463 kts 129°
2026-05-07 23:56 -3.84950 110.24925 40854 ft 463 kts 129°
2026-05-07 23:57 -3.89139 110.29805 40854 ft 462 kts 128°
2026-05-07 23:57 -3.93335 110.34694 40852 ft 462 kts 128°
2026-05-07 23:58 -3.97527 110.39597 40855 ft 464 kts 127°
2026-05-07 23:58 -4.01505 110.44675 40853 ft 463 kts 125°
2026-05-07 23:59 -4.02112 110.45480 40854 ft 463 kts 124°
2026-05-07 23:59 -4.04781 110.49023 40855 ft 463 kts 125°
2026-05-08 00:00 -4.08679 110.54150 40860 ft 462 kts 125°
2026-05-08 00:00 -4.12605 110.59257 40859 ft 462 kts 125°
2026-05-08 00:01 -4.16515 110.64323 40858 ft 463 kts 126°
2026-05-08 00:01 -4.20453 110.69424 40856 ft 463 kts 126°
2026-05-08 00:02 -4.24413 110.74555 40855 ft 462 kts 126°
2026-05-08 00:02 -4.28348 110.79655 40859 ft 463 kts 125°
2026-05-08 00:03 -4.32269 110.84740 40863 ft 466 kts 126°
2026-05-08 00:03 -4.36235 110.89884 40864 ft 466 kts 126°
2026-05-08 00:04 -4.40199 110.95026 40861 ft 465 kts 127°
2026-05-08 00:04 -4.43370 110.99139 40859 ft 465 kts 127°
2026-05-08 00:05 -4.44138 111.00135 40866 ft 465 kts 127°
2026-05-08 00:06 -4.48095 111.05268 40865 ft 466 kts 126°
2026-05-08 00:06 -4.52035 111.10384 40867 ft 466 kts 127°
2026-05-08 00:07 -4.55992 111.15522 40852 ft 466 kts 127°
2026-05-08 00:07 -4.59952 111.20663 40851 ft 465 kts 127°
2026-05-08 00:08 -4.63904 111.25793 40871 ft 467 kts 127°
2026-05-08 00:08 -4.67914 111.30963 40868 ft 470 kts 127°
2026-05-08 00:09 -4.71926 111.36131 40866 ft 469 kts 127°
2026-05-08 00:09 -4.75930 111.41293 40869 ft 468 kts 127°
2026-05-08 00:10 -4.79918 111.46442 40870 ft 469 kts 127°
2026-05-08 00:10 -4.83921 111.51610 40868 ft 470 kts 127°
2026-05-08 00:11 -4.87412 111.56120 40871 ft 470 kts 127°
2026-05-08 00:11 -4.88259 111.57214 40869 ft 469 kts 127°
2026-05-08 00:12 -4.90120 111.59618 40869 ft 469 kts 127°
2026-05-08 00:12 -4.94103 111.64764 40870 ft 468 kts 127°
2026-05-08 00:13 -4.98069 111.69889 40879 ft 469 kts 128°
2026-05-08 00:13 -5.02083 111.75077 40876 ft 472 kts 128°
2026-05-08 00:14 -5.06117 111.80292 41737 ft 473 kts 128°
2026-05-08 00:14 -5.08142 111.82912 40761 ft 477 kts 128°
2026-05-08 00:14 -5.10174 111.85538 40844 ft 476 kts 128°
2026-05-08 00:15 -5.14192 111.90735 42702 ft 470 kts 128°
2026-05-08 00:15 -5.16202 111.93335 40798 ft 474 kts 128°
2026-05-08 00:15 -5.18219 111.95944 40856 ft 474 kts 128°
2026-05-08 00:16 -5.22247 112.01156 40869 ft 472 kts 128°
2026-05-08 00:16 -5.26271 112.06364 40857 ft 471 kts 128°
2026-05-08 00:17 -5.30280 112.11554 40876 ft 470 kts 128°
2026-05-08 00:17 -5.34277 112.16730 40873 ft 469 kts 129°
2026-05-08 00:18 -5.38284 112.21920 40856 ft 471 kts 128°
2026-05-08 00:18 -5.42277 112.27093 40873 ft 472 kts 129°
2026-05-08 00:19 -5.46299 112.32305 40876 ft 471 kts 128°
2026-05-08 00:19 -5.50306 112.37500 40877 ft 470 kts 128°
2026-05-08 00:20 -5.54302 112.42681 40872 ft 470 kts 128°
2026-05-08 00:20 -5.58307 112.47876 40874 ft 470 kts 128°
2026-05-08 00:21 -5.62319 112.53079 40872 ft 472 kts 128°
2026-05-08 00:21 -5.66331 112.58285 40877 ft 472 kts 128°
2026-05-08 00:22 -5.70345 112.63494 40876 ft 470 kts 128°
2026-05-08 00:22 -5.74346 112.68689 40880 ft 472 kts 129°
2026-05-08 00:23 -5.78361 112.73903 40875 ft 472 kts 129°
2026-05-08 00:23 -5.82388 112.79132 40877 ft 473 kts 129°
2026-05-08 00:24 -5.86403 112.84348 40874 ft 472 kts 128°
2026-05-08 00:24 -5.90382 112.89519 40877 ft 469 kts 129°
2026-05-08 00:25 -5.94403 112.94745 40881 ft 471 kts 128°
2026-05-08 00:25 -5.98380 112.99916 40877 ft 471 kts 129°
2026-05-08 00:26 -6.02385 113.05125 40874 ft 471 kts 129°
2026-05-08 00:26 -6.06385 113.10329 40858 ft 470 kts 129°
2026-05-08 00:27 -6.10376 113.15522 40874 ft 468 kts 129°
2026-05-08 00:27 -6.14365 113.20714 40877 ft 469 kts 129°
2026-05-08 00:28 -6.18360 113.25915 40877 ft 471 kts 129°
2026-05-08 00:28 -6.22361 113.31125 40880 ft 471 kts 129°
2026-05-08 00:29 -6.26850 113.35801 40880 ft 466 kts 144°
2026-05-08 00:29 -6.32063 113.39666 40874 ft 466 kts 146°
2026-05-08 00:30 -6.37326 113.43473 40878 ft 466 kts 146°
2026-05-08 00:30 -6.42585 113.47271 40871 ft 465 kts 146°
2026-05-08 00:31 -6.47847 113.51071 40877 ft 465 kts 146°
2026-05-08 00:31 -6.53108 113.54870 40874 ft 465 kts 146°
2026-05-08 00:32 -6.58362 113.58666 40877 ft 465 kts 146°
2026-05-08 00:32 -6.63564 113.62425 40877 ft 465 kts 146°
2026-05-08 00:33 -6.68795 113.66205 40875 ft 465 kts 146°
2026-05-08 00:33 -6.74073 113.70021 40612 ft 462 kts 146°
2026-05-08 00:34 -6.76641 113.71878 40224 ft 459 kts 146°
2026-05-08 00:34 -6.79227 113.73749 39815 ft 457 kts 146°
2026-05-08 00:34 -6.81806 113.75614 39360 ft 456 kts 146°
2026-05-08 00:34 -6.84381 113.77477 38935 ft 454 kts 146°
2026-05-08 00:35 -6.86937 113.79326 38479 ft 454 kts 146°
2026-05-08 00:35 -6.89508 113.81186 37840 ft 455 kts 146°
2026-05-08 00:35 -6.92080 113.83046 37209 ft 457 kts 145°
2026-05-08 00:35 -6.94667 113.84919 36658 ft 458 kts 144°
2026-05-08 00:36 -6.97261 113.86797 35989 ft 460 kts 144°
2026-05-08 00:36 -6.99838 113.88725 35273 ft 465 kts 140°
2026-05-08 00:36 -7.02152 113.91019 34663 ft 467 kts 131°
2026-05-08 00:36 -7.04300 113.93452 34080 ft 467 kts 130°
2026-05-08 00:37 -7.06452 113.95918 33515 ft 467 kts 131°
2026-05-08 00:37 -7.08595 113.98369 32804 ft 468 kts 131°
2026-05-08 00:37 -7.10759 114.00840 32075 ft 471 kts 131°
2026-05-08 00:38 -7.15086 114.05775 30887 ft 469 kts 131°
2026-05-08 00:38 -7.17246 114.08238 30302 ft 468 kts 131°
2026-05-08 00:38 -7.19373 114.10662 29785 ft 466 kts 131°
2026-05-08 00:38 -7.21537 114.13130 29180 ft 462 kts 131°
2026-05-08 00:39 -7.23659 114.15550 28643 ft 458 kts 131°
2026-05-08 00:39 -7.25734 114.17916 28143 ft 454 kts 131°
2026-05-08 00:39 -7.27816 114.20290 27574 ft 451 kts 132°
2026-05-08 00:39 -7.29911 114.22680 26546 ft 460 kts 132°
2026-05-08 00:40 -7.32049 114.25118 25512 ft 469 kts 132°
2026-05-08 00:40 -7.34220 114.27595 24658 ft 472 kts 132°
2026-05-08 00:40 -7.36388 114.30070 23991 ft 470 kts 132°
2026-05-08 00:40 -7.38548 114.32535 23311 ft 468 kts 132°
2026-05-08 00:41 -7.40701 114.34994 22511 ft 467 kts 132°
2026-05-08 00:41 -7.42865 114.37388 21712 ft 456 kts 136°
2026-05-08 00:41 -7.45296 114.39260 20378 ft 440 kts 152°
2026-05-08 00:41 -7.48111 114.40342 19012 ft 433 kts 170°
2026-05-08 00:42 -7.51082 114.40443 18273 ft 427 kts 188°
2026-05-08 00:42 -7.53008 114.40079 18037 ft 419 kts 193°
2026-05-08 00:42 -7.55822 114.39480 17738 ft 407 kts 192°
2026-05-08 00:42 -7.58566 114.38972 17443 ft 395 kts 190°
2026-05-08 00:43 -7.61245 114.38528 17130 ft 385 kts 189°
2026-05-08 00:43 -7.63851 114.38125 16926 ft 374 kts 189°
2026-05-08 00:43 -7.66399 114.37747 16887 ft 367 kts 189°
2026-05-08 00:43 -7.68932 114.37401 16887 ft 369 kts 186°
2026-05-08 00:44 -7.71499 114.37440 16896 ft 371 kts 172°
2026-05-08 00:44 -7.73931 114.38173 16887 ft 358 kts 155°
2026-05-08 00:44 -7.75966 114.39532 16892 ft 347 kts 139°
2026-05-08 00:44 -7.77454 114.41383 16891 ft 336 kts 121°
2026-05-08 00:45 -7.78278 114.43544 16890 ft 326 kts 103°
2026-05-08 00:45 -7.78533 114.45773 16878 ft 313 kts 100°
2026-05-08 00:45 -7.79299 114.47765 16742 ft 301 kts 125°
2026-05-08 00:45 -7.80689 114.49288 16573 ft 293 kts 144°
2026-05-08 00:46 -7.82475 114.50315 16033 ft 301 kts 158°
2026-05-08 00:46 -7.84426 114.51156 15479 ft 309 kts 159°
2026-05-08 00:46 -7.86436 114.52002 14925 ft 317 kts 158°
2026-05-08 00:46 -7.88501 114.52885 14299 ft 327 kts 158°
2026-05-08 00:47 -7.90618 114.53800 13676 ft 335 kts 157°
2026-05-08 00:47 -7.92752 114.54730 13098 ft 339 kts 157°
2026-05-08 00:47 -7.94906 114.55672 12648 ft 337 kts 157°
2026-05-08 00:47 -7.97067 114.56618 12120 ft 339 kts 156°
2026-05-08 00:48 -7.99224 114.57564 11692 ft 337 kts 156°
2026-05-08 00:48 -8.01366 114.58503 11247 ft 335 kts 156°
2026-05-08 00:48 -8.03500 114.59439 10785 ft 334 kts 156°
2026-05-08 00:48 -8.05632 114.60374 10313 ft 334 kts 156°
2026-05-08 00:49 -8.07757 114.61306 9890 ft 332 kts 156°
2026-05-08 00:49 -8.09870 114.62234 9405 ft 330 kts 156°
2026-05-08 00:49 -8.11963 114.63153 8954 ft 327 kts 156°
2026-05-08 00:49 -8.14034 114.64062 8551 ft 322 kts 156°
2026-05-08 00:50 -8.16077 114.64959 8182 ft 317 kts 156°
2026-05-08 00:50 -8.18099 114.65848 7681 ft 317 kts 155°
2026-05-08 00:50 -8.20107 114.66730 7342 ft 311 kts 156°
2026-05-08 00:50 -8.22060 114.67588 7115 ft 301 kts 156°
2026-05-08 00:51 -8.23949 114.68418 6933 ft 290 kts 155°
2026-05-08 00:51 -8.25755 114.69209 6604 ft 280 kts 156°
2026-05-08 00:51 -8.27520 114.69984 6304 ft 278 kts 155°
2026-05-08 00:51 -8.29258 114.70749 6086 ft 272 kts 155°
2026-05-08 00:52 -8.30979 114.71506 5747 ft 270 kts 155°
2026-05-08 00:52 -8.32717 114.72272 5401 ft 268 kts 155°
2026-05-08 00:52 -8.34385 114.73005 5215 ft 261 kts 155°
2026-05-08 00:52 -8.36051 114.73736 5115 ft 260 kts 155°
2026-05-08 00:53 -8.37720 114.74469 4999 ft 262 kts 155°
2026-05-08 00:53 -8.39390 114.75204 4909 ft 262 kts 155°
2026-05-08 00:53 -8.41060 114.75937 4807 ft 262 kts 155°
2026-05-08 00:53 -8.42727 114.76671 4723 ft 261 kts 155°
2026-05-08 00:54 -8.44388 114.77401 4632 ft 260 kts 155°
2026-05-08 00:54 -8.46043 114.78129 4521 ft 260 kts 155°
2026-05-08 00:54 -8.47697 114.78857 4434 ft 259 kts 155°
2026-05-08 00:54 -8.49343 114.79581 4327 ft 258 kts 155°
2026-05-08 00:55 -8.50986 114.80304 4219 ft 257 kts 155°
2026-05-08 00:55 -8.52624 114.81025 4143 ft 256 kts 155°
2026-05-08 00:55 -8.54257 114.81743 4073 ft 257 kts 155°
2026-05-08 00:55 -8.55898 114.82466 4008 ft 257 kts 155°
2026-05-08 00:56 -8.57535 114.83186 3927 ft 257 kts 155°
2026-05-08 00:56 -8.59170 114.83906 3848 ft 256 kts 155°
2026-05-08 00:56 -8.60631 114.84548 3778 ft 255 kts 154°
2026-05-08 00:56 -8.62157 114.85220 3707 ft 255 kts 154°
2026-05-08 00:57 -8.63789 114.85940 3654 ft 256 kts 154°
2026-05-08 00:57 -8.65426 114.86661 3574 ft 255 kts 154°
2026-05-08 00:57 -8.67052 114.87376 3492 ft 254 kts 154°
2026-05-08 00:57 -8.68674 114.88090 3417 ft 254 kts 154°
2026-05-08 00:58 -8.70300 114.88806 3353 ft 255 kts 154°
2026-05-08 00:58 -8.71925 114.89520 3285 ft 253 kts 154°
2026-05-08 00:58 -8.73488 114.90255 3178 ft 242 kts 148°
2026-05-08 00:58 -8.74725 114.91318 3093 ft 229 kts 126°
2026-05-08 00:59 -8.75382 114.92738 2963 ft 221 kts 102°
2026-05-08 00:59 -8.75512 114.94260 2872 ft 213 kts 92°
2026-05-08 00:59 -8.75519 114.95715 2759 ft 207 kts 91°
2026-05-08 00:59 -8.75517 114.97146 2531 ft 198 kts 92°
2026-05-08 01:00 -8.75517 114.98468 2475 ft 177 kts 92°
2026-05-08 01:00 -8.75519 114.99647 2484 ft 161 kts 92°
2026-05-08 01:00 -8.75493 115.00768 2479 ft 158 kts 89°
2026-05-08 01:00 -8.75441 115.01858 2420 ft 149 kts 89°
2026-05-08 01:01 -8.75392 115.02857 2135 ft 140 kts 90°
2026-05-08 01:01 -8.75348 115.03842 1784 ft 140 kts 91°
2026-05-08 01:01 -8.75308 115.04832 1702 ft 141 kts 90°
2026-05-08 01:01 -8.75269 115.05811 1676 ft 135 kts 91°
2026-05-08 01:02 -8.75230 115.06736 1560 ft 129 kts 90°
2026-05-08 01:02 -8.75194 115.07636 1406 ft 127 kts 92°
2026-05-08 01:02 -8.75160 115.08529 1282 ft 128 kts 92°
2026-05-08 01:02 -8.75125 115.09424 1127 ft 127 kts 92°
2026-05-08 01:03 -8.75094 115.10319 1013 ft 128 kts 92°
2026-05-08 01:03 -8.75056 115.11214 895 ft 126 kts 86°
2026-05-08 01:03 -8.75044 115.12069 655 ft 120 kts 88°
2026-05-08 01:03 -8.75019 115.12902 451 ft 120 kts 85°
2026-05-08 01:04 -8.74937 115.13730 330 ft 125 kts 90°
2026-05-08 01:04 -8.74942 115.14641 159 ft 125 kts 93°
2026-05-08 01:04 -8.74890 115.15499 36 ft 119 kts 91°
2026-05-08 01:04 -8.74867 115.16165 32 ft 69 kts 87°
2026-05-08 01:05 -8.74852 115.16524 33 ft 45 kts 87°
2026-05-08 01:05 -8.74788 115.16798 32 ft 25 kts 62°
2026-05-08 01:05 -8.74738 115.16850 34 ft 0 kts 25°
2026-05-08 01:06 -8.74728 115.16855 35 ft 6 kts 25°
2026-05-08 01:06 -8.74682 115.16879 36 ft 8 kts 34°
2026-05-08 01:06 -8.74669 115.16917 36 ft 7 kts 89°
2026-05-08 01:07 -8.74668 115.17004 36 ft 15 kts 89°
2026-05-08 01:07 -8.74640 115.17066 35 ft 6 kts 17°
2026-05-08 01:07 -8.74583 115.17068 37 ft 13 kts 359°
2026-05-08 01:07 -8.74533 115.17066 37 ft 0 kts 358°